CAPE
2336 2140 2036 1754 1366 1278 1297 1346 1368 1344 1328 1305 1811 1739 1466 1515 1675 1789 1798 1761 1668 1502 1234 1138 1060 1018 1035 1040 998 1010 1021 985 824 600 961 1287 1420 1453 2084 2864 2875 2953 3408 3336 2650 2190 2368 2203 2079 2070 2011 1850 1845 1744 1588 1588 1702 1682 1641 1660 1545 1584 1732 1651 1592 1516 1499 1436 1381 1426 1421 1424 1372 1336 1431 1329 1294 1257 1266 1358 1302 1340 1357 1327 1210
2247 2054 1731 1290 1200 1352 1529 1434 1422 1430 1429 1431 1458 1434 1426 1516 1407 1402 1918 1899 1828 1598 1288 1087 1069 1059 986 1018 1100 1136 1111 1092 1106 878 660 864 1272 1344 1767 2173 3014 2832 2952 3078 2474 2163 2337 2252 2166 2007 2104 2046 1878 1893 1732 1734 1736 1763 1684 1692 1645 1607 1672 1699 1669 1558 1630 1572 1445 1416 1410 1385 1383 1362 1368 1354 1336 1274 1243 1365 1373 1371 1415 1417 1420
2046 1922 1684 1499 1373 1411 1387 1388 1420 1503 1511 1565 1644 1708 1745 1723 1569 1359 1462 1698 1584 1457 1350 1360 1346 1236 1195 1158 1090 1152 1216 1252 1192 1084 1044 881 1114 1374 1365 2047 2678 3084 3149 3214 2957 2796 2549 2455 2360 2194 2076 2148 1937 1888 1777 1743 1857 1871 1718 1744 1736 1693 1668 1681 1693 1646 1634 1633 1548 1503 1463 1400 1422 1415 1365 1331 1328 1304 1297 1520 1418 1458 1456 1433 1464
2172 2107 1773 1609 1535 1521 1536 1471 1649 1802 1916 2057 2201 2309 2306 2299 2226 1974 1742 1789 1798 1772 1770 1748 1603 1435 1320 1267 1259 1261 1302 1316 1234 1094 1091 1181 1148 1387 1484 1651 2570 3070 3322 2832 2626 2624 2704 2607 2461 2322 2136 2156 2203 1990 1801 1772 1861 1914 1903 1791 1850 1824 1716 1687 1665 1699 1708 1624 1612 1600 1605 1521 1442 1472 1429 1399 1348 1349 1433 1587 1634 1580 1517 1518 1511
2622 2467 1865 1712 1725 1748 1662 1854 2064 2294 2442 2613 2689 2774 2692 2565 2542 2415 2271 2000 1817 1642 1529 1385 1152 1178 972 892 1073 1210 1196 1118 1047 1101 1294 1528 1480 1486 1578 1762 2392 2700 3337 3181 2708 2668 2475 2378 2292 2571 2390 2196 2207 2073 1940 1860 1874 1879 1947 1883 1861 1782 1692 1726 1727 1758 1703 1698 1647 1629 1629 1669 1581 1570 1539 1472 1481 1444 1551 1649 1684 1716 1699 1566 1542
2864 2583 2130 1906 2080 2199 2104 2236 2522 2744 2655 2617 2804 2896 2831 2638 2552 2042 2220 2414 2293 2090 1785 1532 1301 1065 1005 1180 1266 1256 1108 1094 1047 982 1120 1633 1815 1764 1816 2046 2559 2798 2887 3119 3041 2943 3007 2616 2376 2197 2376 2481 2360 2219 2101 2084 2017 1906 1987 1958 1917 1793 1762 1786 1756 1741 1705 1687 1766 1742 1671 1687 1624 1673 1674 1592 1449 1509 1542 1594 1698 1707 1631 1708 1681
2738 2618 2093 2038 2240 2371 2492 2499 2517 2465 2415 2363 2131 2248 2753 2664 2205 2212 2445 2348 2180 2004 1996 1744 1573 1395 1216 1130 1060 1173 1319 1220 1172 1220 1232 1204 1105 1564 1780 1859 2186 2714 2762 2599 2747 2976 2918 2741 2607 2519 2514 2331 2466 2376 2299 2204 2059 1997 1989 2056 2026 2022 1833 1850 1819 1850 1820 1713 1711 1744 1756 1733 1768 1738 1731 1747 1682 1728 1636 1621 1634 1709 1756 1728 1671
2299 2354 1789 1596 1776 2170 2400 2411 2479 2454 2424 2434 2353 2276 2185 2163 2220 2218 2431 2393 2092 2096 1974 1939 1828 1667 1576 1457 1674 1456 1327 1272 1192 1251 1262 1245 1216 1156 1061 1120 1601 2157 2595 2592 2589 2420 2912 3088 3006 2666 2720 2441 2286 2469 2414 2336 2214 2095 2040 2029 2043 2116 2022 1947 1912 1844 1804 1785 1865 1806 1845 1792 1745 1823 1793 1742 1754 1796 1728 1663 1666 1754 1806 1886 1891
2667 2437 1891 1869 1890 1826 1739 1858 2308 2480 2498 2483 2439 2430 2362 2336 2300 2353 2057 1887 1836 1812 2044 2043 1898 1786 1735 1765 1668 1556 1513 1482 1422 1307 1277 1274 1247 1198 1120 1010 1261 2277 2220 2395 2352 2336 2434 2958 3138 2709 2526 2509 2584 2281 2636 2451 2415 2305 2137 2070 1993 2062 2122 2057 2010 1967 1918 1890 1867 1891 1874 1877 1902 1880 1838 1811 1943 1925 1893 1791 1888 1920 2101 2088 2092
2133 2017 1682 2136 2287 2316 2295 2350 2454 2571 2516 2566 2594 2413 2308 2346 2302 2178 1972 1909 1922 1963 1982 1849 1768 1504 1469 1695 1857 1892 1871 1781 1754 1941 1315 1278 1282 1209 1090 1101 1128 1288 1617 1900 2178 2292 2348 2551 3039 3301 3110 2611 2445 2608 2140 2294 2651 2518 2345 2180 1991 1920 2127 2202 2182 2097 2028 1956 1911 2003 2003 1976 1952 1993 2013 2031 1998 1965 2028 2032 1974 2148 2141 2090 2186
1673 1658 1974 2179 2286 2382 2496 2573 2655 2642 2543 2486 2490 2482 2462 2297 2162 2174 2098 2052 1972 1931 1858 1670 1528 1366 1386 1491 1682 1799 1793 1840 1813 1737 1696 1638 1550 1424 1292 1322 1388 1353 1304 1348 1530 1810 2092 2226 2254 2467 2626 2790 2622 2684 2739 2399 2377 2608 2548 2386 2232 2081 2110 2154 2245 2287 2181 2084 2132 2140 2125 2077 2101 2046 1972 1974 2021 2129 2289 2221 2161 2322 2273 2278 2269
1593 1625 1743 1990 2292 2484 2644 2777 2843 2695 2648 2471 2274 2130 2041 2057 2287 2208 1980 1876 1798 1699 1488 1534 1368 1320 1361 1477 1463 1477 1609 1705 1762 1748 1666 1655 1665 1677 1648 1557 1477 1485 1442 1383 1334 1350 1569 1848 2082 2110 2074 2306 2913 2755 2417 2576 2558 2723 2678 2512 2423 2319 2176 2222 2257 2369 2353 2284 2176 2216 2311 2321 2249 2204 2086 2124 2081 2097 2169 2231 2372 2399 2348 2318 2298
1600 1658 1806 2082 2392 2684 2951 2985 2624 2363 2356 2269 2086 1971 1976 1868 2023 1978 1841 1697 1590 1529 1530 1408 1411 1251 1181 1124 1057 1111 1287 1595 1552 1525 1499 1605 1711 1758 1782 1756 1760 1845 1856 1632 1377 1204 1252 1457 1680 1881 1978 1991 2166 2788 2669 2271 2294 2845 2544 2188 2436 2485 2482 2438 2369 2356 2408 2458 2423 2382 2342 2299 2295 2310 2260 2226 2225 2218 2219 2193 2231 2322 2347 2309 2349
1871 1721 2114 2396 2776 2980 2751 2687 2457 2027 1956 1853 1866 2146 2032 1948 1858 1637 1596 1571 1441 1355 1412 1314 1232 1223 1058 964 877 732 695 891 1114 1300 1427 1521 1598 1698 1796 1862 1852 1792 1715 1599 1521 1331 1116 1200 1450 1715 1930 2074 2190 2316 2512 2325 2312 2704 2419 2213 2364 2279 2540 2560 2511 2485 2508 2534 2607 2545 2445 2322 2236 2262 2303 2287 2248 2221 2197 2172 2165 2194 2279 2369 2353
2391 2518 2426 2520 2362 2395 2451 2317 1472 1460 1198 1229 1409 1747 2033 1898 1748 1627 1516 1221 1142 1289 1399 1358 1247 1145 1067 1005 864 486 455 482 1034 1021 1246 1405 1502 1540 1546 1544 1510 1411 1251 1079 1052 1178 1139 1001 1012 1286 1580 1780 1933 2083 2239 2286 2424 2561 2602 2659 2577 2164 1826 2553 2618 2606 2681 2774 2754 2646 2560 2413 2358 2320 2308 2297 2274 2248 2221 2175 2126 2106 2136 2274 2323
2674 2432 2129 1711 1729 1589 1218 950 867 1043 1245 1375 1426 1566 1772 1729 1636 1514 1294 1152 1326 1396 1337 1159 1105 1017 790 932 835 616 374 428 552 369 432 666 718 1228 1177 1072 846 736 809 796 837 932 1010 1020 1029 1037 1150 1370 1519 1696 1827 2078 2383 2310 2360 2829 2708 2330 2402 1899 2506 2719 2686 2748 2776 2776 2620 2478 2388 2317 2407 2336 2284 2286 2223 2184 2139 2115 2086 2144 2226
610 507 558 457 617 625 611 794 926 1170 1354 1234 953 988 1344 1518 1448 1343 1339 1382 1252 1222 1257 1307 1053 848 885 772 711 561 602 461 342 355 652 398 366 436 551 651 1150 702 423 570 522 596 633 647 756 852 838 1050 1202 1293 1364 1501 1638 1877 2337 2651 2916 2600 2742 2532 2093 2164 2764 2729 2762 2816 2581 2455 2435 2402 2456 2496 2432 2346 2247 2160 2135 2097 2080 2066 2113
237 204 278 338 359 629 652 824 822 1143 1256 978 907 1022 1120 1462 1495 1371 1305 1398 1373 1267 1102 870 898 1006 1064 935 704 540 437 459 410 561 446 476 504 481 453 277 208 423 536 600 608 618 529 394 405 423 459 647 916 1086 1081 965 1164 1371 1859 2399 3065 2942 2644 2690 1901 1924 1808 2692 2656 2839 2754 2513 2443 2479 2606 2578 2614 2552 2405 2126 2094 2071 2053 2054 2071
110 112 191 424 451 633 612 656 742 1143 1865 960 934 997 1029 1594 1664 1441 1432 1393 1349 1177 985 848 749 997 1107 816 764 779 721 616 620 414 370 408 388 203 143 170 186 270 357 536 748 669 633 574 550 581 588 626 654 710 789 876 1013 1232 1434 2024 2802 2811 2755 2674 2734 2088 2058 1773 2300 2709 2748 2805 2545 2450 2484 2500 2641 2598 2495 2451 2085 2021 2011 2018 2016
209 139 202 362 637 562 556 657 716 1062 1329 1002 1028 1088 1121 1427 1685 1379 1542 1349 1387 1220 961 815 807 883 959 869 792 800 810 725 608 486 329 219 149 128 125 213 92 81 152 253 369 607 723 667 627 596 613 646 645 767 768 796 906 1068 1659 2014 2424 2789 2742 2689 2868 2718 2485 2114 1748 2552 2811 2913 2901 2569 2401 2548 2652 2747 2600 2558 2459 2106 1987 2135 2168
80 227 394 507 1319 398 550 503 540 905 2061 1170 1130 1030 923 926 1007 1062 1052 1372 1416 1261 948 916 958 921 810 815 783 692 583 508 443 398 313 222 160 93 70 54 40 44 141 164 185 286 503 619 666 705 690 685 614 672 763 919 865 880 1248 1679 2402 2630 2631 2506 2578 2911 2688 2565 2358 2188 2456 2797 2947 3021 2851 2786 2753 2775 2778 2680 2623 2565 2227 2184 2251
205 194 135 364 484 588 329 369 432 824 1342 956 1096 1104 1047 961 1118 1204 1144 1113 1356 1236 1005 913 746 779 747 784 556 506 589 470 495 351 282 275 160 133 94 72 56 56 36 54 105 208 308 501 680 768 786 700 628 610 677 700 804 965 948 1355 1856 2182 2412 2452 2488 2723 2970 2881 2699 2434 2360 2353 2733 3034 3095 3110 3020 2927 2855 2873 2784 2731 2695 2498 2422
234 152 250 452 521 673 258 340 496 1176 1087 679 838 1070 1026 870 834 761 836 832 1127 1017 1025 938 925 812 753 678 470 337 361 298 200 198 224 244 179 96 56 41 85 96 86 82 168 134 165 218 294 434 569 692 723 667 598 554 871 1095 1229 1354 1516 1648 1802 2075 2383 2646 2734 2768 2964 2739 2668 2722 2500 2445 2846 3102 3105 3092 2989 2926 3007 3007 2828 2820 2739
236 235 379 318 214 171 692 331 486 472 498 595 969 1011 1077 831 848 776 812 837 842 857 772 725 790 696 658 478 317 351 467 365 247 250 308 382 180 61 63 56 35 48 64 62 43 58 90 136 171 260 398 529 707 755 645 628 681 1088 1345 1500 1444 1366 1420 1603 1817 2152 2444 2631 2682 2731 2707 2803 2837 2590 2166 2297 2980 3224 3165 3093 2960 3003 3024 2940 2823
134 281 164 221 274 187 271 225 266 394 717 783 929 921 1123 908 796 878 916 937 865 989 1043 877 764 594 474 445 348 285 268 269 320 359 426 482 317 68 18 42 41 7 1 6 49 92 32 54 129 247 311 386 538 747 956 1079 984 999 1340 1436 1334 1227 1214 1267 1389 1594 1884 2167 2415 2598 2638 2610 2535 2385 2442 2499 2538 2793 3217 3183 3109 3092 3062 3035 2708
31 182 110 117 321 252 427 267 247 257 523 804 796 825 856 876 975 814 862 813 893 1201 1039 783 778 745 629 627 471 335 297 325 416 483 527 427 219 104 75 41 8 0 0 2 6 0 82 77 74 102 160 251 325 403 511 716 1115 1573 1647 1457 1105 1046 1042 1033 1050 1154 1337 1567 1801 2058 2386 2554 2585 2514 2412 2397 2491 2530 2790 3043 3265 3175 3232 3010 2592
13 66 163 208 171 219 271 212 259 381 614 943 1085 880 946 1187 940 774 807 784 943 815 657 637 644 697 719 734 586 460 400 431 514 508 540 488 305 203 116 6 0 0 0 0 0 0 0 0 0 2 20 164 244 268 290 340 605 1100 1439 1371 1345 1248 1088 1003 967 960 1001 1144 1333 1529 1808 2194 2429 2520 2546 2488 2327 2377 2620 2699 2889 2986 2986 2893 2699
4 156 187 184 118 285 432 324 189 275 374 460 610 714 832 875 613 597 628 885 844 818 796 788 791 840 889 791 690 580 534 450 415 474 554 465 356 295 160 39 8 2 0 0 0 0 0 0 0 0 0 2 0 5 45 102 160 467 936 1060 1129 1230 1285 1255 1147 1055 976 913 962 1164 1378 1581 1943 2258 2450 2553 2547 2389 2225 2357 2434 2493 2583 2625 2600
68 298 52 85 116 122 121 135 196 216 228 370 467 486 675 755 629 570 648 675 853 950 840 844 936 981 882 798 485 197 135 349 573 653 575 447 302 79 30 59 132 27 6 0 0 0 0 0 0 0 0 0 0 0 0 0 1 1 124 513 728 929 1052 1158 1255 1267 1213 1124 1022 901 905 1047 1270 1640 2002 2253 2429 2453 2355 2127 2066 2209 2296 2358 2404
158 300 164 142 97 892 147 180 230 281 350 426 417 461 592 641 656 712 681 778 902 841 845 1012 961 815 747 687 446 195 111 302 410 515 533 150 92 77 54 26 130 30 10 4 0 0 0 0 0 0 0 0 0 0 0 0 0 0 0 58 470 972 1064 1045 1028 1030 1068 1091 1065 957 832 797 841 975 1300 1715 2045 2287 2353 2252 2012 1811 1988 2143 2220
224 132 84 22 39 76 198 174 183 290 232 290 461 534 562 533 656 707 683 797 813 759 748 865 922 872 758 644 512 331 146 254 294 431 234 75 1 26 17 27 63 39 1 6 2 0 0 0 0 0 0 0 0 0 0 0 0 0 0 0 29 298 769 950 1034 1086 1089 1042 967 933 909 854 848 903 1004 1196 1492 1797 2043 2088 2020 1844 1562 1713 1914
72 89 67 50 20 3 22 96 110 76 111 162 262 291 328 301 387 558 554 729 836 784 764 818 842 894 679 419 370 378 104 151 265 101 0 0 0 0 0 0 0 0 0 1 3 0 0 0 0 0 0 0 0 0 0 0 0 0 0 1 1 113 194 574 839 900 958 988 970 906 870 877 885 892 956 1058 1212 1468 1722 1896 1912 1828 1656 1442 1541
0 12 4 0 0 0 1 52 5 18 97 244 472 554 554 546 556 578 603 689 736 732 712 534 485 652 434 309 198 167 160 117 201 102 66 123 0 0 0 0 0 0 0 0 0 2 0 0 0 0 0 0 0 0 0 0 0 0 0 1 7 39 145 385 632 779 852 867 830 768 728 723 758 804 856 937 1007 1057 1154 1282 1380 1453 1500 1475 1393
0 1 0 0 0 3 32 18 33 32 75 185 253 512 652 637 670 739 756 763 701 677 568 541 448 337 304 282 231 183 197 130 19 12 0 0 93 6 0 0 0 0 0 0 0 4 2 0 0 0 0 0 0 0 0 0 0 0 0 0 1 54 240 456 652 753 824 856 825 734 634 571 538 559 598 694 831 988 1080 1042 973 999 1144 1335 1409
0 0 0 0 2 24 29 36 32 44 84 145 195 511 650 533 493 546 619 641 672 697 641 518 416 348 250 62 154 208 212 139 14 74 0 0 0 0 0 0 0 0 0 0 0 1 2 1 0 0 0 0 0 0 0 0 0 0 0 0 0 13 90 302 524 644 758 855 897 868 790 655 473 526 591 732 880 915 887 870 880 1020 1123 1205 1370
0 1 26 19 25 28 23 34 25 27 63 127 238 532 672 681 700 709 620 497 453 401 411 430 371 227 171 192 263 300 283 162 21 0 0 0 0 96 56 0 0 0 0 0 0 0 2 3 0 0 0 0 0 0 0 0 0 0 0 0 1 5 17 37 156 380 554 675 786 882 945 953 901 813 772 809 798 819 1024 1264 1334 1347 1262 1230 1253
0 0 8 57 38 26 46 28 20 38 85 150 250 572 712 734 773 722 648 595 466 370 240 90 163 79 172 209 210 222 244 204 170 0 0 0 0 0 0 0 0 0 0 0 0 0 2 4 2 0 0 0 0 0 0 0 0 0 0 5 9 10 5 5 19 105 252 419 540 612 670 753 832 912 1002 1090 1123 1141 1175 1209 1243 1334 1365 1316 1250
0 0 0 0 12 0 2 15 15 36 68 112 199 272 528 753 797 791 744 583 510 353 150 16 16 11 26 104 141 228 260 198 23 0 0 0 0 0 0 0 0 110 0 0 0 1 2 5 5 2 0 0 0 0 0 0 0 1 1 0 2 11 42 46 59 133 255 368 422 446 506 558 577 608 682 829 995 1050 996 1023 1220 1328 1322 1280 1226
0 0 0 0 4 0 8 23 17 29 18 19 83 174 317 678 855 835 703 614 547 333 124 80 78 92 117 168 220 262 215 0 0 0 0 0 0 0 0 0 3 179 16 0 136 28 8 5 3 2 0 0 0 0 0 0 0 4 15 13 7 4 38 76 88 125 218 316 398 480 506 474 438 442 515 704 856 960 1008 1043 1117 1174 1226 1251 1241
0 0 0 0 0 11 0 0 0 0 0 0 0 3 161 608 837 835 781 677 428 255 131 88 104 162 208 214 72 0 0 0 0 0 0 0 0 0 0 0 134 250 266 228 158 59 12 3 3 2 0 0 0 0 0 0 2 0 10 33 14 3 2 13 64 117 166 309 419 518 600 630 604 565 539 553 694 873 936 918 894 955 1051 1132 1190
0 0 0 0 0 0 0 0 0 0 0 0 0 2 233 615 830 851 765 592 383 296 234 195 210 167 6 2 1 0 62 180 4 0 0 0 0 0 0 237 268 302 325 279 176 55 5 2 1 0 0 0 0 0 0 2 3 3 2 4 9 5 4 4 2 50 178 275 381 534 633 695 758 767 761 764 785 799 814 902 1029 1110 1170 1233 1256
6 39 5 0 0 0 0 0 0 0 11 44 281 306 537 651 722 685 570 445 414 397 374 404 317 89 0 0 60 406 290 185 360 418 261 420 402 368 352 344 397 417 424 323 174 54 2 1 1 1 2 1 0 0 1 6 3 1 1 8 13 6 6 7 3 0 59 266 334 347 420 603 735 818 862 859 874 869 902 966 1035 1082 1162 1247 1290
7 21 51 1 4 0 0 0 0 0 0 5 50 134 519 695 537 114 162 399 468 560 653 626 53 36 15 0 124 365 639 575 578 528 478 446 465 454 430 451 540 576 546 419 244 78 4 0 0 1 1 6 3 6 19 25 23 25 20 16 19 19 23 21 7 0 103 232 329 316 288 370 551 642 717 833 902 844 785 762 769 877 1138 1264 1320
5 12 20 8 0 0 0 0 0 0 0 6 3 2 49 375 558 565 502 507 558 612 676 495 276 8 20 237 297 312 362 408 440 457 448 446 449 466 503 590 692 712 635 537 327 107 4 0 0 0 0 12 18 20 37 35 24 21 22 22 21 16 12 12 11 12 181 374 283 282 262 288 379 478 542 615 691 706 683 631 577 603 754 1048 1285
13 53 198 30 5 0 5 20 16 10 16 19 3 0 0 0 5 418 431 404 383 385 355 310 263 236 256 314 336 327 359 433 590 470 384 322 322 376 508 646 690 681 653 528 254 64 25 0 0 0 2 28 46 52 69 87 41 35 20 21 17 20 17 16 8 5 0 122 369 327 297 307 306 313 308 376 492 647 749 738 714 681 670 753 922
146 218 220 220 219 199 129 118 43 34 23 29 14 0 0 0 0 3 17 19 132 103 296 287 276 316 347 349 352 442 520 480 267 5 6 9 17 426 574 648 663 622 443 171 22 0 0 0 0 0 43 69 90 82 102 87 80 66 38 18 15 18 19 16 4 2 0 10 48 131 249 320 391 400 346 371 437 585 724 796 828 851 884 965 1000
237 237 245 279 262 236 232 147 46 51 40 83 1 0 0 0 0 0 0 12 40 61 290 358 375 356 356 458 582 639 657 612 506 359 22 13 419 573 670 627 361 0 0 0 8 7 0 13 94 113 107 110 112 100 84 68 57 50 51 37 22 20 16 14 15 4 4 7 34 34 22 153 317 520 542 570 602 661 760 876 917 913 931 964 959
281 304 335 350 363 329 230 151 194 194 34 38 0 0 0 0 0 0 0 0 9 72 97 189 186 388 628 703 703 697 689 712 555 225 4 461 629 587 149 0 0 0 0 0 0 3 3 81 132 134 120 112 103 96 90 77 50 26 16 14 11 13 11 7 4 2 11 0 16 31 31 134 227 490 565 664 666 658 731 886 1017 1083 1094 1092 1068
399 422 438 452 474 430 285 186 171 62 51 167 109 0 0 0 0 0 0 0 6 30 98 295 591 670 586 558 584 649 712 593 13 0 211 549 0 0 0 0 0 0 0 0 1 2 0 77 79 77 111 112 79 86 92 70 46 36 24 17 10 3 8 2 5 5 1 0 4 29 29 41 114 340 554 630 625 617 672 870 1074 1210 1244 1245 1233
548 559 554 565 577 578 489 315 175 176 188 86 0 0 0 0 0 40 0 2 56 410 541 439 426 404 286 586 970 778 76 0 0 8 403 0 0 0 0 0 0 0 60 102 57 7 0 100 85 84 140 102 69 79 73 51 32 15 21 26 17 18 11 7 4 3 3 0 0 17 67 18 98 348 581 728 754 739 735 873 1060 1203 1306 1370 1371
655 679 634 626 662 508 159 266 256 288 238 244 0 0 0 0 86 179 8 162 319 314 331 206 46 0 0 8 12 0 0 0 0 0 0 0 0 0 0 0 0 50 144 1 2 1 0 28 82 113 104 60 88 82 101 40 14 1 4 48 39 20 20 15 10 6 4 1 0 42 72 77 206 282 574 654 693 786 893 933 992 1096 1214 1300 1361
Wind_Speed
13 12 12 13 12 13 14 14 14 13 12 11 12 12 12 13 13 12 13 14 13 12 13 12 11 10 12 12 12 13 13 12 11 12 13 12 10 10 8 9 11 12 13 14 13 12 10 10 11 11 11 10 9 8 8 8 8 8 9 9 9 9 9 9 10 10 10 11 11 11 11 11 12 12 12 12 13 13 13 13 13 12 12 11 10
13 11 12 13 11 12 13 13 14 14 14 14 15 15 16 15 14 14 14 14 14 13 14 13 12 11 11 13 15 13 13 14 12 12 13 14 13 11 6 6 9 10 11 11 11 10 9 9 8 9 10 10 10 9 8 8 8 7 8 9 9 9 9 9 9 10 10 10 11 11 10 11 11 12 12 13 13 13 14 14 14 13 13 12 10
13 13 13 13 12 13 14 14 14 15 15 16 16 17 17 17 15 14 14 14 14 13 13 12 13 13 12 13 15 17 13 13 14 14 14 14 15 14 11 5 7 10 11 11 10 9 9 9 8 7 8 8 9 9 8 7 7 7 7 7 8 9 9 9 9 9 10 9 10 10 10 10 11 11 12 12 13 14 14 14 14 14 13 12 11
13 12 14 14 14 15 15 16 16 16 17 17 17 17 17 16 15 15 15 16 15 14 14 13 12 12 13 12 13 17 16 14 13 14 14 15 16 16 15 12 7 8 9 8 8 7 6 7 7 7 6 7 7 7 7 7 6 6 6 6 7 7 8 8 8 9 9 9 9 9 9 9 10 11 11 12 13 14 14 14 14 14 14 13 12
12 11 11 14 15 15 16 17 17 16 17 17 17 16 16 16 16 14 15 16 15 14 12 12 11 11 12 12 12 14 16 17 15 15 14 15 16 16 17 16 14 7 7 8 8 8 7 6 6 6 6 6 7 6 6 6 6 5 5 5 5 6 7 7 8 8 8 8 8 9 9 8 9 10 11 12 12 13 14 14 14 14 14 14 13
11 10 10 11 13 14 14 14 15 16 16 16 17 17 18 20 18 16 18 18 18 17 15 13 13 12 12 13 13 12 13 15 17 16 16 16 16 17 17 18 17 16 13 9 9 10 8 8 9 7 5 6 7 7 6 6 5 5 5 4 4 4 5 6 7 7 7 7 7 8 8 8 8 9 10 11 12 13 13 14 14 14 14 14 13
11 10 10 11 12 12 13 14 14 15 15 15 16 17 19 18 18 20 20 19 19 18 20 18 15 13 12 13 13 12 13 14 15 18 18 17 18 18 17 18 19 18 17 16 11 10 9 8 8 9 7 5 6 8 8 7 6 6 5 5 4 3 3 4 4 5 6 6 6 6 7 8 7 8 9 10 11 11 13 13 13 14 14 14 14
12 11 11 11 11 11 12 12 12 13 14 14 16 16 18 18 19 20 19 20 22 24 24 22 20 17 14 13 14 13 12 12 14 16 18 19 18 18 18 19 20 19 18 18 17 14 9 8 7 8 9 8 5 6 8 8 7 7 6 6 6 5 4 3 3 3 4 5 5 6 6 7 7 7 7 9 10 10 11 13 13 13 14 14 14
15 15 14 12 11 10 9 11 12 13 14 15 16 16 17 18 19 21 22 21 23 24 25 26 24 22 19 16 15 14 13 13 15 16 18 19 18 18 18 19 19 20 21 21 20 18 12 9 8 8 8 8 9 6 7 8 8 7 7 7 7 7 5 4 3 3 2 3 4 5 5 5 6 7 7 8 9 8 9 11 13 13 13 13 13
14 13 12 11 11 10 9 9 11 12 14 15 16 17 19 20 18 21 24 24 23 24 25 26 26 24 22 20 18 17 15 13 15 19 19 18 19 20 18 19 20 21 22 23 23 21 19 13 8 8 7 7 11 10 8 8 8 8 7 7 6 7 7 6 4 4 3 1 3 4 4 4 4 5 6 7 7 8 8 9 11 11 12 12 12
13 13 13 11 10 10 10 10 12 13 15 16 18 18 18 20 22 20 22 25 24 25 25 26 26 26 25 23 21 20 18 16 15 19 21 18 18 19 22 19 20 21 22 24 25 24 21 20 18 16 14 7 10 11 11 10 10 9 8 7 7 7 7 7 6 5 4 3 0 2 3 3 3 3 5 6 7 7 6 7 9 10 11 11 11
14 14 14 13 13 13 13 13 14 15 16 18 18 20 21 21 22 24 23 24 25 25 25 25 25 26 25 25 24 21 20 19 16 14 18 21 19 20 21 21 20 20 22 25 26 25 24 22 20 19 18 15 10 9 9 11 12 11 9 8 7 6 6 7 7 6 5 4 2 0 1 2 2 2 3 4 5 6 6 6 6 8 9 10 11
14 15 16 16 16 16 16 15 16 17 17 18 19 19 22 24 25 25 24 24 25 26 27 27 24 24 26 26 25 25 22 20 18 16 16 20 21 21 22 23 22 21 22 25 26 26 25 24 23 22 21 21 19 12 11 12 13 12 11 9 8 7 6 7 8 8 6 6 5 4 2 1 1 2 2 2 3 4 5 5 5 6 7 9 9
16 17 16 18 17 17 17 16 16 16 18 19 19 20 21 23 25 24 26 26 27 27 27 28 27 27 25 24 27 27 25 23 20 18 16 17 19 21 21 22 22 23 23 25 25 25 24 24 25 25 24 24 23 23 19 17 15 13 13 10 10 9 8 7 7 7 7 6 6 6 5 3 2 1 1 1 2 3 4 4 4 6 7 7 8
17 17 17 17 18 18 19 19 20 21 20 19 20 21 23 23 25 27 26 27 28 28 28 30 29 28 28 27 26 25 27 25 23 22 19 18 19 19 21 22 23 25 28 27 25 25 25 26 26 28 28 26 25 24 23 18 19 16 16 14 13 10 9 9 8 8 7 7 7 7 7 6 4 3 2 1 1 1 3 4 4 5 6 7 7
18 18 19 19 21 22 22 23 22 23 23 23 23 23 25 25 27 28 29 28 30 29 29 31 31 30 27 29 28 28 26 29 25 21 20 20 21 22 24 25 25 29 31 28 25 27 28 29 29 29 30 29 29 28 26 24 16 13 14 15 14 13 10 10 9 9 8 8 8 8 9 8 7 5 4 3 2 2 1 3 3 4 5 6 6
20 21 22 22 23 24 24 24 24 23 24 24 24 24 25 26 28 28 31 30 31 31 30 31 31 33 33 30 29 29 30 29 25 26 27 24 21 21 25 27 29 29 27 26 29 28 27 27 28 29 30 31 32 32 29 26 24 21 18 15 15 16 14 13 10 10 10 9 9 10 10 10 9 8 6 4 4 3 2 2 2 3 4 5 5
21 21 21 22 23 24 25 25 24 24 25 25 25 25 25 26 28 29 29 31 32 34 31 30 30 32 34 33 31 31 29 29 28 27 29 28 26 26 26 27 27 27 26 27 28 28 28 28 29 28 28 30 32 30 30 30 26 24 25 24 17 18 17 16 13 11 10 10 10 11 11 11 10 10 9 6 4 5 4 3 2 2 3 4 5
21 22 22 21 23 25 25 26 26 26 26 27 27 27 27 28 29 30 30 32 33 33 33 32 30 33 34 35 34 33 32 30 29 27 22 29 31 28 26 25 28 28 28 28 29 30 30 30 29 28 28 29 30 29 30 29 25 22 18 17 18 19 20 19 17 14 12 10 10 11 10 11 11 11 10 9 5 4 5 4 3 3 3 4 4
23 22 22 24 25 26 26 27 27 27 28 29 29 29 29 29 31 31 32 34 35 35 33 34 35 34 36 36 35 35 34 32 31 30 27 23 24 30 29 28 nan nan 28 28 29 30 31 32 31 30 30 29 29 29 30 31 31 29 26 19 19 19 20 22 21 18 14 11 11 10 11 11 12 12 12 11 9 5 6 5 4 4 4 5 5
nan 24 24 24 25 26 28 28 29 29 29 30 30 30 30 30 30 32 33 35 36 36 36 35 37 36 36 36 36 36 36 36 34 35 31 27 25 nan nan nan nan nan 32 31 29 29 30 32 32 31 31 31 31 31 31 31 31 31 28 22 20 19 19 21 22 20 17 13 12 11 10 10 11 11 13 14 12 9 6 6 5 5 5 6 5
23 25 26 26 28 28 28 29 29 29 29 29 29 30 30 32 33 34 35 36 35 37 37 37 38 37 38 39 38 37 38 37 38 37 33 31 28 26 nan nan nan nan nan nan 30 29 29 31 33 34 34 33 33 32 32 32 32 32 29 22 22 21 19 19 20 20 20 18 15 12 12 11 11 11 12 13 14 13 10 7 6 4 5 5 5
25 25 27 28 29 28 29 29 29 29 30 30 31 31 32 34 35 35 36 36 37 37 37 38 39 39 40 41 41 41 41 40 39 38 36 33 30 nan nan nan nan nan nan nan 31 29 29 30 31 33 35 35 34 33 33 33 30 28 23 24 24 22 22 20 19 21 22 21 19 17 14 14 14 13 12 13 13 13 13 11 9 8 5 6 7
27 27 29 30 28 27 28 29 29 29 29 31 32 33 34 35 35 35 36 37 37 38 39 38 40 40 41 42 42 42 42 42 41 41 38 35 32 nan nan nan nan nan nan nan nan nan nan 31 30 32 34 35 35 34 34 34 33 24 25 26 25 24 24 23 21 20 21 21 22 21 20 17 16 15 14 13 13 13 14 14 12 10 8 7 8
29 32 30 29 28 29 29 29 29 29 30 32 33 34 35 35 35 35 36 37 38 39 40 39 41 42 42 43 45 44 43 43 44 42 41 39 35 nan nan nan nan nan nan nan nan nan nan nan 33 33 34 34 35 36 35 35 35 32 27 31 26 27 26 25 23 21 20 20 20 21 21 20 19 19 17 16 14 13 15 14 14 13 11 10 9
nan 32 30 29 28 29 30 30 30 30 31 33 34 35 36 36 36 36 36 36 38 40 41 41 42 42 44 44 45 46 44 45 45 44 42 40 37 33 nan nan nan nan nan nan nan nan nan nan nan 35 35 34 35 36 37 36 36 33 29 32 32 29 27 26 24 22 20 19 19 21 21 20 20 20 20 19 18 17 16 15 15 14 14 12 10
nan nan 30 29 29 29 30 31 32 32 33 34 35 36 36 38 38 39 37 37 38 40 40 41 41 42 44 45 45 45 45 46 48 45 43 40 37 34 32 nan nan nan nan nan nan nan nan nan nan nan nan 36 36 37 37 38 36 32 31 35 36 31 29 27 25 23 21 20 21 21 20 20 20 20 21 21 20 20 18 17 17 16 16 15 14
nan 32 30 30 29 30 30 31 32 33 34 35 36 37 38 39 38 39 37 38 39 39 39 41 41 42 44 45 46 44 45 45 46 44 43 39 36 35 35 nan nan nan nan nan nan nan nan nan nan nan nan nan nan nan nan 36 38 37 35 37 37 37 32 29 27 26 24 23 23 23 21 19 20 20 21 22 22 21 21 20 18 18 18 18 18
nan 32 nan nan 30 31 31 31 31 32 33 35 37 38 39 39 39 39 38 38 39 39 40 42 42 42 44 46 47 46 45 45 43 42 40 39 37 nan nan nan 34 nan nan nan nan nan nan nan nan nan nan nan nan nan nan nan nan nan 41 40 38 38 36 33 30 28 26 25 24 23 22 20 20 20 21 22 22 22 22 21 20 20 19 19 20
31 31 31 30 nan 31 32 32 32 32 33 34 37 38 39 39 39 39 39 40 40 39 40 42 42 44 45 45 46 45 44 45 43 41 39 37 nan nan nan nan 38 nan nan nan nan nan nan nan nan nan nan nan nan nan nan nan nan nan nan nan 40 39 35 34 33 30 27 26 25 24 23 21 20 20 22 23 23 23 23 23 22 21 21 20 20
30 31 nan nan nan nan 33 33 33 33 34 36 38 39 40 40 40 40 39 40 41 40 40 42 41 44 45 45 45 45 44 43 41 40 38 nan nan nan nan nan nan nan nan nan nan nan nan nan nan nan nan nan nan nan nan nan nan nan nan nan nan 37 34 37 34 32 30 27 26 25 24 22 21 22 23 23 24 24 24 24 24 23 23 22 22
nan nan nan nan nan nan nan nan 34 nan 36 37 39 39 40 40 40 39 38 40 40 40 39 40 41 43 44 43 43 44 43 42 40 39 nan nan nan nan nan nan nan nan nan nan nan nan nan nan nan nan nan nan nan nan nan nan nan nan nan nan nan 37 39 40 37 34 31 29 27 27 26 24 23 23 22 22 23 24 24 25 25 25 25 24 24
nan nan nan nan nan nan nan nan nan nan nan 36 36 37 38 39 39 39 39 41 41 40 41 40 42 44 45 45 44 44 43 41 39 39 nan 38 nan nan nan nan nan nan nan nan nan nan nan nan nan nan nan nan nan nan nan nan nan nan nan nan nan nan 40 41 41 37 33 31 29 29 28 27 25 24 23 21 22 23 23 24 25 26 26 26 25
nan nan nan nan nan nan nan nan nan nan nan 38 37 38 39 40 40 41 41 41 41 41 42 41 42 43 44 44 43 43 42 39 nan nan nan nan nan nan nan nan nan nan nan nan nan nan nan nan nan nan nan nan nan nan nan nan nan nan nan nan nan nan 42 42 42 42 37 35 33 31 30 29 27 26 25 23 22 22 23 24 24 25 26 27 27
nan nan nan nan nan nan nan nan nan nan nan 40 40 41 41 42 41 41 41 42 43 43 42 42 42 43 43 nan 43 42 40 37 nan nan nan nan nan nan nan nan nan nan nan nan nan nan nan nan nan nan nan nan nan nan nan nan nan nan nan nan nan nan nan 42 42 43 40 38 36 34 32 31 30 28 27 25 24 23 23 24 24 24 26 27 28
nan nan nan nan nan nan nan nan nan nan nan 40 41 42 42 42 42 42 42 43 43 43 43 42 42 43 43 42 41 41 38 35 nan nan nan nan nan nan nan nan nan nan nan nan nan nan nan nan nan nan nan nan nan nan nan nan nan nan nan nan nan nan nan nan 42 42 41 38 39 38 35 33 30 29 28 27 25 24 24 23 23 23 24 27 28
nan nan nan nan nan nan nan nan nan nan nan 41 42 42 43 43 43 43 43 43 43 43 42 nan 41 nan 42 42 41 39 37 34 32 nan nan nan nan nan nan nan nan nan nan nan nan nan nan nan nan nan nan nan nan nan nan nan nan nan nan nan nan nan nan nan nan 41 38 36 37 37 37 35 31 28 28 28 26 25 24 24 23 22 23 24 27
nan nan nan nan nan nan nan nan nan nan nan 42 43 43 43 43 43 43 43 42 41 41 41 nan nan nan nan 40 40 38 36 35 nan nan nan nan nan nan nan nan nan 32 nan nan nan nan nan nan nan nan nan nan nan nan nan nan nan nan nan nan nan nan nan nan nan 42 43 44 46 45 42 39 34 29 29 29 27 24 24 24 23 21 21 22 24
nan nan nan nan nan nan nan nan nan nan nan nan nan 42 41 42 43 43 42 41 39 39 39 nan nan nan 39 39 39 38 37 nan nan nan nan nan nan nan nan nan nan 32 nan nan 30 nan nan nan nan nan nan nan nan nan nan nan nan nan nan nan nan nan nan nan nan 43 44 43 42 40 43 44 40 37 33 30 29 25 23 24 24 22 22 21 22
nan nan nan nan nan nan nan nan nan nan nan nan nan nan 41 42 43 42 42 40 39 38 37 nan 36 36 37 38 nan nan nan nan nan nan nan nan nan nan nan nan 31 32 31 30 30 nan nan nan nan nan nan nan nan nan nan nan nan nan nan nan nan nan nan nan nan 43 44 44 45 47 46 44 41 37 34 35 33 30 26 26 25 25 22 22 21
nan nan nan nan nan nan nan nan nan nan nan nan nan nan 42 41 41 41 40 40 39 37 36 35 35 35 nan nan nan nan nan 34 nan nan nan nan nan nan nan 33 33 33 32 32 31 nan nan nan nan nan nan nan nan nan nan nan nan nan nan nan nan nan nan nan nan nan 43 44 46 47 47 47 45 44 44 45 43 37 32 26 29 25 24 23 22
nan nan nan nan nan nan nan nan nan nan nan nan 41 43 43 42 41 40 40 40 39 38 36 33 32 nan nan nan nan 35 35 33 32 30 29 29 31 33 32 33 34 34 34 33 32 nan nan nan nan nan nan nan nan nan nan nan nan nan nan nan nan nan nan nan nan nan nan 44 45 45 46 47 46 44 45 44 44 43 41 37 34 32 30 26 24
nan nan nan nan nan nan nan nan nan nan nan nan nan 43 43 43 41 40 40 40 39 38 36 33 nan nan nan nan 36 35 34 32 31 29 28 28 28 31 32 32 34 36 35 34 33 nan nan nan nan nan nan nan nan nan nan nan nan nan nan nan nan nan nan nan nan nan 45 43 45 46 45 47 46 43 43 43 42 44 42 37 32 30 29 28 27
nan nan nan nan nan nan nan nan nan nan nan nan nan nan nan 39 39 40 40 39 38 37 35 32 31 nan nan 33 35 36 35 34 33 32 29 28 28 28 30 32 32 34 36 38 35 33 nan nan nan nan nan nan nan nan nan nan nan nan nan nan nan nan nan nan nan nan 48 48 46 46 45 47 48 44 42 42 42 42 40 35 31 31 29 28 28
nan nan 42 nan nan nan nan nan nan nan nan nan nan nan nan nan nan 40 39 37 36 36 35 32 31 32 34 34 34 34 35 31 32 32 31 30 28 28 30 31 32 35 36 37 39 nan nan nan nan nan nan nan nan nan nan nan nan nan nan nan nan nan nan nan nan nan nan 48 46 45 44 47 50 46 42 41 42 43 39 33 28 29 29 29 28
43 44 46 47 46 46 46 46 nan nan nan nan nan nan nan nan nan nan nan nan 35 35 35 33 33 34 36 37 34 33 33 34 33 nan nan nan nan 30 31 32 33 33 34 36 nan nan nan nan nan nan nan nan nan nan 21 nan nan nan nan nan nan nan nan nan nan nan nan nan nan 46 45 46 49 47 42 41 43 43 41 35 28 27 29 29 29
44 45 46 45 44 44 42 40 nan nan nan nan nan nan nan nan nan nan nan nan nan nan 35 35 35 36 37 37 35 33 32 32 32 33 nan nan 31 31 31 31 32 nan nan nan nan nan nan nan nan 39 35 32 26 nan nan nan nan nan nan nan nan nan nan nan nan nan nan nan nan nan nan 45 50 47 43 43 45 44 44 40 33 30 30 30 29
40 43 45 46 46 46 44 41 44 48 nan nan nan nan nan nan nan nan nan nan nan nan nan 35 35 37 37 37 35 33 33 32 29 29 nan 32 33 32 31 nan nan nan nan nan nan nan nan nan 38 38 36 33 27 nan nan nan nan nan nan nan nan nan nan nan nan nan nan nan nan nan nan 45 49 47 44 45 47 45 45 45 40 33 32 30 30
41 45 48 48 47 47 44 41 43 nan nan 40 39 nan nan nan nan nan nan nan nan nan nan 35 35 36 37 36 34 33 32 32 nan nan 33 36 nan nan nan nan nan nan nan nan nan nan nan nan nan nan 32 31 nan nan nan nan nan nan nan nan nan nan nan nan nan nan nan nan nan nan nan nan 46 46 45 47 47 44 44 44 44 39 33 32 31
45 48 49 48 47 47 43 40 42 42 37 nan nan nan nan nan nan nan nan nan nan 35 33 35 35 35 34 31 32 34 nan nan nan nan 36 nan nan nan nan nan nan nan nan 32 nan nan nan nan nan nan 30 29 nan nan nan nan nan nan nan nan nan nan nan nan nan nan nan nan nan nan nan nan nan 47 46 51 50 46 43 43 42 42 37 35 33
46 47 47 48 46 39 34 33 38 42 37 32 nan nan nan nan nan 37 nan 38 36 33 34 34 nan nan nan nan nan nan nan nan nan nan nan nan nan nan nan nan nan nan 29 nan nan nan nan nan nan 30 30 nan nan nan 26 nan nan nan nan nan nan nan nan nan nan nan nan nan nan nan nan nan 44 46 47 52 50 47 43 41 42 42 43 43 42
Wind_Direction
15 13 3 9 8 2 4 8 4 7 1 7 2 2 1 357 352 345 340 339 334 330 320 311 302 291 289 289 287 288 290 285 275 271 275 276 275 280 306 315 316 311 310 313 321 324 327 332 333 332 334 341 344 348 353 2 12 15 16 19 32 44 52 55 54 49 44 39 41 44 44 46 48 45 41 41 37 36 38 41 43 43 48 53 57
20 19 12 23 19 16 19 20 15 13 8 16 13 11 13 6 359 353 349 348 343 336 321 315 305 300 296 296 297 293 285 283 276 269 268 271 271 267 298 318 324 319 311 307 316 325 327 327 329 328 331 337 340 342 343 348 2 16 14 12 19 35 49 59 61 58 55 49 44 46 48 48 50 50 46 43 43 41 43 45 46 48 53 58 61
21 23 26 24 24 27 28 26 26 23 16 21 18 15 12 10 4 359 357 357 355 344 331 321 309 304 302 303 305 301 295 282 274 269 267 270 271 265 261 302 317 320 321 322 319 324 325 322 324 322 324 332 338 340 340 339 344 2 16 10 12 21 37 54 65 66 63 59 53 49 51 50 51 53 51 50 48 46 48 50 51 54 56 62 66
22 28 31 28 26 25 25 23 25 21 17 18 17 13 10 11 6 0 356 352 356 351 337 329 319 310 301 303 303 306 306 297 285 278 270 265 268 268 263 256 286 309 317 324 307 291 297 309 305 306 310 315 325 331 335 333 333 341 0 10 7 11 24 41 58 68 69 67 64 57 55 54 53 54 54 54 54 52 52 53 52 58 62 64 69
22 31 33 28 26 23 21 21 19 16 12 14 12 7 7 10 11 1 1 354 350 352 338 332 325 319 309 307 302 302 303 300 296 287 280 271 267 270 270 267 259 281 313 308 309 298 276 264 276 282 290 300 307 320 324 328 324 322 335 356 5 7 15 28 45 61 70 72 72 68 63 59 56 54 55 57 58 58 57 57 56 58 63 69 72
17 26 28 24 26 24 22 19 12 7 3 2 3 0 4 5 357 355 13 359 357 356 348 345 339 327 321 316 305 299 292 292 293 291 285 277 269 265 265 265 263 258 260 296 305 297 291 278 268 267 280 295 298 303 307 314 322 316 314 323 345 360 5 16 34 51 65 73 76 76 76 70 63 58 56 57 60 62 62 62 61 61 63 66 72
18 22 27 17 18 15 13 15 7 0 360 1 358 357 357 358 353 1 2 359 356 357 354 354 350 342 331 316 309 297 287 285 284 286 287 284 274 266 262 263 263 262 261 261 277 298 294 281 280 281 279 284 295 298 303 307 314 317 312 304 310 324 343 354 18 42 59 71 77 80 81 80 74 66 61 59 58 62 65 65 65 65 66 67 69
11 14 24 21 17 11 8 359 350 348 356 359 353 357 352 356 356 355 355 356 354 1 356 358 355 351 340 324 315 305 292 279 277 280 285 280 275 269 263 261 262 262 263 261 259 262 293 290 282 280 269 270 279 294 301 307 309 314 315 310 303 302 306 319 336 24 54 68 77 82 83 85 84 77 69 64 61 62 67 70 69 67 68 68 69
7 2 2 11 7 3 0 348 340 347 356 355 347 344 345 349 348 343 345 350 354 358 354 354 354 351 345 337 328 316 302 289 280 278 273 276 272 264 257 255 258 263 261 260 257 254 267 285 289 293 281 277 271 270 281 291 298 299 303 307 307 300 296 304 309 320 23 71 80 84 86 87 88 87 80 71 66 66 68 73 75 72 70 70 70
2 351 352 353 350 346 347 342 338 344 348 342 342 345 345 343 347 343 341 345 348 351 352 350 350 350 348 344 338 330 322 306 290 282 281 278 275 270 264 255 253 256 260 261 259 255 253 262 290 297 302 269 259 262 255 255 265 274 281 289 298 297 294 293 300 302 314 46 89 95 96 95 94 94 93 87 78 72 70 74 78 79 77 73 71
348 346 347 348 340 336 336 342 338 340 339 339 340 342 344 340 343 346 341 342 345 345 347 345 346 347 347 347 342 340 333 322 304 290 286 281 276 271 267 261 256 254 256 259 260 257 253 251 252 255 254 264 251 251 255 249 248 251 259 269 274 282 288 290 291 292 306 310 14 118 113 109 107 95 91 93 91 89 84 80 79 80 81 80 76
348 345 342 340 337 339 341 340 337 334 332 330 335 337 340 340 341 342 343 336 339 341 339 340 341 342 346 345 344 342 338 331 320 305 290 284 277 269 268 265 259 253 253 256 258 258 254 249 250 250 247 250 257 241 246 257 256 256 255 256 262 268 275 281 287 289 293 302 308 259 156 142 123 111 93 92 98 99 99 93 91 88 86 87 86
346 340 344 343 341 341 339 336 328 325 325 329 331 333 334 335 335 334 335 333 331 332 333 332 333 336 335 339 341 341 341 335 330 318 303 290 280 270 266 266 265 258 253 254 257 260 258 252 248 247 246 244 244 240 233 237 247 254 259 258 258 261 264 267 274 280 288 293 298 284 256 201 170 137 122 100 105 106 107 109 103 97 93 92 94
346 344 341 342 341 338 333 331 323 323 326 327 329 333 331 331 327 324 327 328 329 328 329 326 326 330 330 332 335 336 337 334 331 317 304 294 285 276 267 265 267 265 258 253 252 257 259 256 249 246 246 246 245 245 242 241 238 245 244 248 253 256 256 255 258 265 272 282 291 285 280 264 239 217 185 146 115 115 118 118 114 108 103 100 98
342 341 339 336 335 333 336 332 329 327 324 325 324 325 328 328 324 325 326 325 328 330 330 325 326 325 330 330 327 323 325 322 318 312 307 302 292 281 271 265 261 261 259 253 249 250 251 252 248 242 240 244 246 248 249 245 243 249 249 244 243 244 254 256 252 253 255 262 270 279 281 278 272 260 257 267 252 170 128 125 126 119 113 112 107
339 338 334 333 334 334 333 331 329 328 327 326 323 321 321 322 323 325 323 323 322 323 323 324 322 320 320 322 326 324 325 325 320 319 313 300 293 282 274 270 266 262 262 261 255 248 244 244 244 242 240 239 239 238 239 241 238 241 250 253 251 249 250 257 259 255 251 247 248 256 264 272 276 273 266 266 264 252 190 142 139 132 124 119 115
332 330 328 329 330 331 329 330 329 326 323 321 320 320 321 322 323 322 324 322 320 321 320 318 319 322 322 320 321 323 324 326 318 320 309 294 287 281 275 270 268 268 263 258 258 256 254 251 249 245 240 238 239 240 241 237 236 241 242 245 248 246 245 246 248 255 254 249 244 243 248 256 263 266 266 263 261 256 247 207 161 154 142 133 130
328 329 326 328 327 329 327 327 326 324 323 321 321 320 320 321 323 323 322 322 319 319 320 318 321 323 324 318 319 323 322 320 318 315 311 310 301 289 281 270 265 262 260 256 255 257 258 253 251 248 246 245 243 239 238 241 240 238 238 239 244 247 244 243 240 233 238 247 246 243 243 247 252 256 257 260 262 251 252 237 215 191 177 161 148
326 324 325 322 324 327 327 326 324 324 323 322 321 322 323 323 319 318 320 317 315 317 319 320 317 317 317 320 322 321 321 320 318 315 307 301 295 286 280 277 272 265 262 259 257 254 251 250 248 247 244 245 247 244 242 245 249 250 235 230 242 246 247 244 243 237 227 228 241 245 245 248 251 253 253 250 248 239 240 239 228 221 216 203 181
319 316 317 317 323 325 322 321 321 324 324 323 322 322 320 319 319 318 317 316 317 318 320 318 317 319 318 320 322 322 322 321 322 317 312 302 289 289 289 278 nan nan 264 259 254 253 249 247 246 244 244 244 244 243 243 240 239 242 239 232 235 242 245 243 240 241 238 227 224 234 245 249 252 255 255 254 252 249 236 233 231 225 227 234 228
nan 315 314 312 314 317 318 316 317 320 321 321 322 320 319 317 316 315 315 316 318 318 317 319 319 321 318 317 317 318 318 321 317 314 313 304 296 nan nan nan nan nan 269 261 257 254 252 251 250 247 244 244 244 242 244 246 244 242 237 228 230 234 242 245 241 235 235 230 228 226 228 241 251 255 257 257 256 255 251 240 236 233 230 236 239
315 315 312 310 311 311 313 316 318 318 318 319 319 318 316 316 316 316 315 316 318 317 319 321 321 321 319 319 317 318 319 315 314 315 314 313 301 284 nan nan nan nan nan nan 260 254 251 249 248 248 245 244 246 245 244 246 246 243 238 230 228 225 229 238 240 237 234 234 231 227 227 229 239 249 253 254 256 255 254 251 242 240 236 233 239
315 314 307 310 307 310 314 317 317 316 316 317 317 317 316 316 315 314 314 315 317 319 320 321 321 320 320 320 321 320 319 318 318 315 313 309 300 nan nan nan nan nan nan nan 261 256 251 248 247 247 245 242 243 243 242 243 243 243 238 234 231 226 222 225 232 233 234 235 234 230 224 226 229 235 243 248 248 249 251 251 252 250 243 237 239
312 311 310 308 309 309 310 311 312 314 317 318 317 316 317 316 314 314 314 315 316 317 319 321 321 321 321 321 322 320 319 319 318 316 314 310 301 nan nan nan nan nan nan nan nan nan nan 252 248 246 246 244 241 241 240 239 239 236 236 231 226 225 224 221 221 227 232 236 235 229 225 224 227 231 233 236 243 246 243 245 248 248 244 243 237
312 312 314 314 311 308 308 310 312 315 318 317 319 318 317 316 316 315 316 316 317 318 319 321 321 321 324 322 321 320 321 320 317 315 313 311 307 nan nan nan nan nan nan nan nan nan nan nan 252 249 246 243 241 239 238 238 239 237 234 232 223 223 223 223 222 221 226 234 234 230 227 224 224 227 231 235 236 237 240 239 239 242 242 238 235
nan 316 317 315 312 311 311 314 316 316 316 318 319 319 319 318 317 317 317 318 317 319 321 322 322 323 322 321 321 322 322 319 319 316 313 308 305 298 nan nan nan nan nan nan nan nan nan nan nan 249 247 244 240 237 235 235 235 235 232 232 225 221 223 225 224 224 226 230 228 227 228 226 226 226 228 231 234 235 236 234 233 233 237 236 229
nan nan 316 315 314 312 313 314 315 316 316 318 320 320 319 317 318 317 318 319 320 320 322 322 322 322 322 323 323 322 322 320 319 318 314 311 304 297 285 nan nan nan nan nan nan nan nan nan nan nan nan 246 243 237 233 233 231 228 227 230 228 222 223 224 227 227 228 228 225 224 227 229 230 230 230 230 232 234 235 235 232 229 227 225 225
nan 315 317 315 313 314 315 315 315 316 317 319 321 320 319 319 319 318 320 319 321 323 324 322 323 323 323 323 321 323 322 322 320 319 316 312 305 295 287 nan nan nan nan nan nan nan nan nan nan nan nan nan nan nan nan 223 226 222 221 230 229 228 225 223 224 227 227 225 224 224 225 227 230 233 232 231 231 233 233 235 235 232 228 226 225
nan 315 nan nan 314 315 316 315 315 316 317 319 320 320 319 320 321 321 322 323 323 324 323 322 324 323 323 323 324 324 323 321 319 319 316 309 303 nan nan nan 280 nan nan nan nan nan nan nan nan nan nan nan nan nan nan nan nan nan 226 228 227 228 227 226 225 226 228 226 226 225 225 225 230 233 234 233 232 232 233 235 237 236 231 227 225
316 317 315 316 nan 317 315 313 314 315 317 318 319 320 320 322 323 324 325 324 323 323 323 324 325 323 323 323 323 324 323 321 321 319 315 310 nan nan nan nan 286 nan nan nan nan nan nan nan nan nan nan nan nan nan nan nan nan nan nan nan 224 225 225 225 224 226 229 229 228 227 225 227 232 234 235 235 234 233 233 234 237 237 234 231 228
316 316 nan nan nan nan 313 313 313 315 317 319 319 320 321 322 323 326 325 324 323 324 325 324 325 324 323 324 323 324 323 321 320 317 315 nan nan nan nan nan nan nan nan nan nan nan nan nan nan nan nan nan nan nan nan nan nan nan nan nan nan 220 219 225 224 224 228 231 231 231 229 230 232 232 233 235 234 233 234 234 235 236 237 236 233
nan nan nan nan nan nan nan nan 314 nan 318 319 319 320 320 322 324 326 326 324 324 324 325 323 323 323 324 324 324 324 324 320 318 317 nan nan nan nan nan nan nan nan nan nan nan nan nan nan nan nan nan nan nan nan nan nan nan nan nan nan nan 217 221 226 225 225 227 230 230 231 232 233 232 229 231 234 234 232 233 233 233 234 236 237 237
nan nan nan nan nan nan nan nan nan nan nan 318 318 320 322 324 325 326 325 324 325 325 324 325 324 325 325 325 325 326 323 320 318 317 nan 313 nan nan nan nan nan nan nan nan nan nan nan nan nan nan nan nan nan nan nan nan nan nan nan nan nan nan 223 226 228 228 229 229 229 228 230 232 232 229 228 231 232 231 231 233 234 233 233 235 237
nan nan nan nan nan nan nan nan nan nan nan 319 322 323 324 325 325 325 326 325 325 325 325 326 326 325 325 325 326 326 323 321 nan nan nan nan nan nan nan nan nan nan nan nan nan nan nan nan nan nan nan nan nan nan nan nan nan nan nan nan nan nan 223 224 227 228 228 229 229 228 227 228 231 231 228 227 228 230 230 231 233 234 233 233 235
nan nan nan nan nan nan nan nan nan nan nan 322 324 325 325 325 326 326 326 325 324 326 327 328 328 325 324 nan 327 326 322 319 nan nan nan nan nan nan nan nan nan nan nan nan nan nan nan nan nan nan nan nan nan nan nan nan nan nan nan nan nan nan nan 223 224 227 225 225 226 227 227 226 228 230 228 227 230 234 233 233 235 236 236 234 235
nan nan nan nan nan nan nan nan nan nan nan 324 325 325 327 328 328 328 326 325 325 326 327 328 327 325 326 326 326 325 322 319 nan nan nan nan nan nan nan nan nan nan nan nan nan nan nan nan nan nan nan nan nan nan nan nan nan nan nan nan nan nan nan nan 222 223 225 222 221 223 224 224 225 226 227 228 232 235 235 235 237 239 240 237 235
nan nan nan nan nan nan nan nan nan nan nan 326 327 328 328 328 328 327 326 325 325 326 327 nan 326 nan 326 326 326 323 321 319 315 nan nan nan nan nan nan nan nan nan nan nan nan nan nan nan nan nan nan nan nan nan nan nan nan nan nan nan nan nan nan nan nan 221 220 222 221 220 222 223 224 224 225 227 232 235 234 235 236 238 240 239 237
nan nan nan nan nan nan nan nan nan nan nan 327 329 330 330 328 326 325 325 325 325 324 324 nan nan nan nan 327 325 323 320 318 nan nan nan nan nan nan nan nan nan 308 nan nan nan nan nan nan nan nan nan nan nan nan nan nan nan nan nan nan nan nan nan nan nan 220 221 224 226 223 221 221 222 222 222 223 227 232 234 235 237 239 240 240 239
nan nan nan nan nan nan nan nan nan nan nan nan nan 329 327 326 326 324 324 324 323 322 322 nan nan nan 327 326 324 322 321 nan nan nan nan nan nan nan nan nan nan 309 nan nan 305 nan nan nan nan nan nan nan nan nan nan nan nan nan nan nan nan nan nan nan nan 219 221 220 221 221 223 225 227 227 225 223 223 227 230 233 236 239 241 241 241
nan nan nan nan nan nan nan nan nan nan nan nan nan nan 326 326 325 324 324 323 322 320 320 nan 324 326 327 326 nan nan nan nan nan nan nan nan nan nan nan nan 311 310 310 307 305 nan nan nan nan nan nan nan nan nan nan nan nan nan nan nan nan nan nan nan nan 217 219 220 219 220 221 220 222 225 223 220 219 221 226 231 235 237 240 242 244
nan nan nan nan nan nan nan nan nan nan nan nan nan nan 324 325 324 324 323 322 321 320 319 321 323 325 nan nan nan nan nan 321 nan nan nan nan nan nan nan 313 313 314 312 309 308 nan nan nan nan nan nan nan nan nan nan nan nan nan nan nan nan nan nan nan nan nan 220 219 219 219 220 222 223 225 227 224 223 224 227 234 234 235 237 239 242
nan nan nan nan nan nan nan nan nan nan nan nan 323 327 326 324 324 324 323 321 319 319 319 320 322 nan nan nan nan 322 322 322 321 322 321 321 323 320 318 316 317 316 316 314 314 nan nan nan nan nan nan nan nan nan nan nan nan nan nan nan nan nan nan nan nan nan nan 222 219 217 218 221 222 223 226 224 222 227 228 233 235 236 236 241 243
nan nan nan nan nan nan nan nan nan nan nan nan nan 325 329 333 326 324 323 322 319 319 319 319 nan nan nan nan 318 316 316 316 315 319 320 321 322 325 328 328 323 320 317 318 317 nan nan nan nan nan nan nan nan nan nan nan nan nan nan nan nan nan nan nan nan nan 224 225 222 217 215 221 223 221 223 222 221 224 226 228 235 235 232 238 244
nan nan nan nan nan nan nan nan nan nan nan nan nan nan nan 333 331 325 322 320 319 318 317 316 317 nan nan 320 316 312 310 312 312 313 314 317 320 323 326 328 329 328 326 321 318 315 nan nan nan nan nan nan nan nan nan nan nan nan nan nan nan nan nan nan nan nan 220 225 220 217 214 219 224 221 220 220 220 221 224 228 233 232 231 235 241
nan nan 325 nan nan nan nan nan nan nan nan nan nan nan nan nan nan 329 323 320 319 319 315 311 310 315 320 320 316 311 309 313 311 310 309 307 311 320 325 326 325 326 326 328 328 nan nan nan nan nan nan nan nan nan nan nan nan nan nan nan nan nan nan nan nan nan nan 217 217 215 213 218 225 221 218 218 219 220 220 224 229 230 230 235 240
323 326 325 325 325 325 324 323 nan nan nan nan nan nan nan nan nan nan nan nan 315 317 314 308 305 311 317 318 315 311 309 306 306 nan nan nan nan 310 313 313 314 319 322 325 nan nan nan nan nan nan nan nan nan nan 247 nan nan nan nan nan nan nan nan nan nan nan nan nan nan 212 211 216 224 221 217 217 221 219 219 221 231 233 232 235 240
327 328 329 330 331 330 329 327 nan nan nan nan nan nan nan nan nan nan nan nan nan nan 314 308 305 308 312 315 314 314 310 306 306 307 nan nan 306 308 310 312 313 nan nan nan nan nan nan nan nan 326 324 318 311 nan nan nan nan nan nan nan nan nan nan nan nan nan nan nan nan nan nan 213 223 221 215 216 221 220 220 223 233 237 235 235 239
324 324 326 326 328 327 325 324 326 327 nan nan nan nan nan nan nan nan nan nan nan nan nan 308 305 306 309 312 313 313 311 308 309 312 nan 307 307 308 310 nan nan nan nan nan nan nan nan nan 321 322 320 320 318 nan nan nan nan nan nan nan nan nan nan nan nan nan nan nan nan nan nan 208 220 219 212 215 220 219 220 223 230 238 236 236 238
320 323 324 324 324 326 323 321 327 nan nan 322 323 nan nan nan nan nan nan nan nan nan nan 306 304 304 306 308 311 311 308 307 nan nan 309 307 nan nan nan nan nan nan nan nan nan nan nan nan nan nan 333 331 nan nan nan nan nan nan nan nan nan nan nan nan nan nan nan nan nan nan nan nan 215 216 209 213 219 217 218 221 224 231 235 234 236
320 324 325 324 326 328 325 321 325 330 327 nan nan nan nan nan nan nan nan nan nan 302 303 303 303 303 305 310 309 308 nan nan nan nan 306 nan nan nan nan nan nan nan nan 305 nan nan nan nan nan nan 324 316 nan nan nan nan nan nan nan nan nan nan nan nan nan nan nan nan nan nan nan nan nan 216 211 213 216 215 216 219 223 227 233 230 233
318 321 320 316 313 315 311 307 324 330 324 314 nan nan nan nan nan 319 nan 309 303 301 301 301 nan nan nan nan nan nan nan nan nan nan nan nan nan nan nan nan nan nan 305 nan nan nan nan nan nan 308 306 nan nan nan 300 nan nan nan nan nan nan nan nan nan nan nan nan nan nan nan nan nan 214 215 216 212 213 214 218 220 224 227 230 230 229